Location: Geçitköy
(36.7327°N, 29.8010°E)
Time: 20:04:29
(UTC+00:00)

Meteor 1-21 - Pass Details

Date: 12 January 2026
Orbit: 845 x 885 km, 81.2° (Epoch: 10 February)

Event Time Altitude Azimuth Distance (km) Brightness Sun altitude
Rises 16:06:35 0° 182° (S) 3,411 7.6 -12.2°
Reaches altitude 10° 16:09:00 10° 180° (S) 2,474 6.9 -12.7°
Maximum altitude 16:14:35 75° 97° (E) 881 4.1 -13.7°
Drops below altitude 10° 16:20:11 10° 12° (NNE) 2,473 6.4 -14.8°
Sets 16:22:36 0° 11° (NNE) 3,411 7.1 -15.3°
